Change the Weather History Date:

Saturday, December 14, 2013

  Actual Average (KTYR) Record (KTYR)
Temperature  
Mean Temperature 42 °F 48 °F  
Max Temperature 48 °F 58 °F 80 °F (1995)
Min Temperature 33 °F 39 °F 16 °F (1917)
Degree Days  
Heating Degree Days 24 17  
Month to date heating degree days 225  
Since 1 July heating degree days 599  
Cooling Degree Days 0 0  
Month to date cooling degree days 0  
Year to date cooling degree days 2411  
Moisture  
Dew Point 40 °F    
Average Humidity 90    
Maximum Humidity 100    
Minimum Humidity 75    
Precipitation  
Precipitation 0.00 in 0.13 in 1.12 in (1905)
Month to date precipitation 1.84  
Year to date precipitation 43.39  
Snow  
Snow 0.00 in - - ()
Month to date snowfall  
Since 1 July snowfall  
Snow Depth -    
Sea Level Pressure  
Sea Level Pressure 30.08 in    
Wind  
Wind Speed 6 mph (NW)    
Max Wind Speed 20 mph    
Max Gust Speed 26 mph    
Visibility 4 miles    
Events      
T = Trace of Precipitation, MM = Missing Value Source: NWS Daily Summary

Daily Weather History Graph

Daily Weather History Graph

Search for Another Location

Airport or City:

Trip Planner

Search our weather history database for the weather conditions in past years. The results will help you decide how hot, cold, wet, or windy it might be!

Date:

Astronomy

Dec. 14, 2013 Rise Set
Actual Time 7:16 AM CST 5:17 PM CST
Civil Twilight 6:49 AM CST 5:44 PM CST
Nautical Twilight 6:18 AM CST 6:15 PM CST
Astronomical Twilight 5:48 AM CST 6:45 PM CST
Moon 3:34 PM CST (12/14) 4:43 AM CST (12/14)
Length of Visible Light 10h 55m
Length of Day
10h 00m
Waxing Gibbous, 94% of the Moon is Illuminated
Dec 14
Waxing Gibbous
Dec 17
Full
Dec 25
Last Quarter
Jan 1
New
Jan 7
First Quarter

Hourly Weather History & Observations

Time (CST) Temp. Windchill Dew Point Humidity Pressure Visibility Wind Dir Wind Speed Gust Speed Precip Events Conditions
12:15 AM 44.6 °F - 44.6 °F 100% 29.84 in 3.0 mi Calm Calm - N/A   Overcast
12:35 AM 46.4 °F 42.9 °F 46.4 °F 100% 29.83 in 2.5 mi SSW 6.9 mph - N/A   Overcast
12:55 AM 46.4 °F 43.5 °F 46.4 °F 100% 29.82 in 1.0 mi SSW 5.8 mph - N/A   Overcast
1:15 AM 46.4 °F 43.5 °F 46.4 °F 100% 29.82 in 0.8 mi SSW 5.8 mph - N/A   Overcast
1:35 AM 46.4 °F 45.2 °F 46.4 °F 100% 29.82 in 1.0 mi SSW 3.5 mph - N/A   Overcast
1:55 AM 46.4 °F 45.2 °F 46.4 °F 100% 29.82 in 1.8 mi SW 3.5 mph - N/A   Overcast
2:15 AM 48.2 °F - 48.2 °F 100% 29.82 in 3.0 mi WSW 3.5 mph - N/A   Overcast
2:35 AM 48.2 °F - 48.2 °F 100% 29.82 in 3.0 mi SW 5.8 mph - N/A   Overcast
2:55 AM 46.4 °F 44.3 °F 46.4 °F 100% 29.83 in 4.0 mi WSW 4.6 mph - N/A   Overcast
3:15 AM 46.4 °F 43.5 °F 46.4 °F 100% 29.83 in 3.0 mi WNW 5.8 mph - N/A   Overcast
3:35 AM 46.4 °F - 46.4 °F 100% 29.83 in 4.0 mi Calm Calm - N/A   Overcast
3:55 AM 46.4 °F - 46.4 °F 100% 29.84 in 3.0 mi Calm Calm - N/A   Overcast
4:15 AM 46.4 °F - 46.4 °F 100% 29.84 in 3.0 mi Calm Calm - N/A   Overcast
4:35 AM 46.4 °F 45.2 °F 46.4 °F 100% 29.84 in 3.0 mi NW 3.5 mph - N/A   Overcast
4:55 AM 46.4 °F - 46.4 °F 100% 29.84 in 2.5 mi Calm Calm - N/A   Overcast
5:15 AM 46.4 °F 45.2 °F 46.4 °F 100% 29.85 in 2.5 mi NW 3.5 mph - N/A   Overcast
5:35 AM 46.4 °F - 46.4 °F 100% 29.87 in 1.8 mi Calm Calm - N/A   Overcast
5:55 AM 46.4 °F - 46.4 °F 100% 29.88 in 1.2 mi Calm Calm - N/A   Overcast
6:15 AM 46.4 °F - 46.4 °F 100% 29.91 in 1.0 mi Calm Calm - N/A   Overcast
6:35 AM 46.4 °F - 46.4 °F 100% 29.92 in 1.0 mi Calm Calm - N/A   Overcast
6:55 AM 46.4 °F 44.3 °F 46.4 °F 100% 29.94 in 3.0 mi North 4.6 mph - N/A   Overcast
7:15 AM 46.4 °F 44.3 °F 46.4 °F 100% 29.95 in 3.0 mi NNW 4.6 mph - N/A   Overcast
7:35 AM 46.4 °F 42.4 °F 46.4 °F 100% 29.97 in 1.5 mi North 8.1 mph - N/A   Overcast
7:55 AM 46.4 °F 42.9 °F 46.4 °F 100% 29.98 in 4.0 mi NNW 6.9 mph - N/A   Overcast
8:15 AM 46.4 °F 42.4 °F 46.4 °F 100% 30.00 in 3.0 mi NNW 8.1 mph - N/A   Overcast
8:35 AM 44.6 °F 38.8 °F 44.6 °F 100% 30.01 in 3.0 mi NNW 11.5 mph - N/A   Overcast
8:55 AM 44.6 °F 39.7 °F 44.6 °F 100% 30.03 in 3.0 mi NNW 9.2 mph - N/A   Overcast
9:15 AM 44.6 °F 39.2 °F 44.6 °F 100% 30.04 in 5.0 mi NNW 10.4 mph 16.1 mph N/A   Overcast
9:35 AM 44.6 °F 38.8 °F 44.6 °F 100% 30.06 in 5.0 mi NNW 11.5 mph - N/A   Overcast
9:55 AM 44.6 °F 40.2 °F 42.8 °F 93% 30.07 in 5.0 mi NNW 8.1 mph - N/A   Overcast
10:15 AM 44.6 °F 39.2 °F 42.8 °F 93% 30.08 in 5.0 mi NNW 10.4 mph - N/A   Overcast
10:35 AM 44.6 °F 39.7 °F 42.8 °F 93% 30.09 in 5.0 mi NW 9.2 mph - N/A   Overcast
10:55 AM 44.6 °F 40.2 °F 42.8 °F 93% 30.10 in 5.0 mi NW 8.1 mph - N/A   Overcast
11:15 AM 44.6 °F 39.7 °F 42.8 °F 93% 30.10 in 5.0 mi NNW 9.2 mph - N/A   Overcast
11:35 AM 46.4 °F 40.4 °F 42.8 °F 87% 30.09 in 5.0 mi NNW 13.8 mph 17.3 mph N/A   Overcast
11:55 AM 46.4 °F 40.1 °F 42.8 °F 87% 30.09 in 5.0 mi NNW 15.0 mph 18.4 mph N/A   Overcast
12:15 PM 46.4 °F 40.4 °F 42.8 °F 87% 30.09 in 5.0 mi NNW 13.8 mph 20.7 mph N/A   Overcast
12:35 PM 44.6 °F 37.8 °F 42.8 °F 93% 30.10 in 5.0 mi NW 15.0 mph 18.4 mph N/A   Overcast
12:55 PM 44.6 °F 38.1 °F 41.0 °F 87% 30.11 in 3.0 mi NW 13.8 mph 19.6 mph N/A   Overcast
1:15 PM 44.6 °F 37.4 °F 39.2 °F 81% 30.11 in 5.0 mi NW 16.1 mph 25.3 mph N/A   Overcast
1:35 PM 44.6 °F 36.6 °F 39.2 °F 81% 30.12 in 5.0 mi NW 19.6 mph 24.2 mph N/A   Overcast
1:55 PM 44.6 °F 38.4 °F 37.4 °F 76% 30.13 in 5.0 mi NNW 12.7 mph 26.5 mph N/A   Haze
2:15 PM 44.6 °F 38.4 °F 37.4 °F 76% 30.13 in 4.0 mi NW 12.7 mph 20.7 mph N/A   Haze
2:35 PM 42.8 °F 35.8 °F 37.4 °F 81% 30.14 in 4.0 mi NW 13.8 mph 24.2 mph N/A   Haze
2:55 PM 42.8 °F 34.8 °F 37.4 °F 81% 30.15 in 3.0 mi NW 17.3 mph 23.0 mph N/A   Haze
3:15 PM 42.8 °F 35.4 °F 35.6 °F 76% 30.17 in 3.0 mi NW 15.0 mph 20.7 mph N/A   Haze
3:35 PM 42.8 °F 35.1 °F 35.6 °F 76% 30.18 in 3.0 mi NNW 16.1 mph 21.9 mph N/A   Haze
3:55 PM 42.8 °F 36.2 °F 35.6 °F 76% 30.18 in 3.0 mi NW 12.7 mph - N/A   Haze
4:15 PM 41.0 °F 33.9 °F 35.6 °F 81% 30.19 in 4.0 mi NW 12.7 mph 20.7 mph N/A   Haze
4:35 PM 41.0 °F 33.1 °F 33.8 °F 76% 30.20 in 5.0 mi NNW 15.0 mph 23.0 mph N/A   Haze
4:55 PM 41.0 °F 33.5 °F 33.8 °F 76% 30.21 in 5.0 mi NNW 13.8 mph 23.0 mph N/A   Haze
5:15 PM 39.2 °F 30.8 °F 32.0 °F 75% 30.20 in 5.0 mi NNW 15.0 mph 20.7 mph N/A   Haze
5:35 PM 39.2 °F 30.8 °F 33.8 °F 81% 30.21 in 6.0 mi NNW 15.0 mph 19.6 mph N/A   Haze
5:55 PM 39.2 °F 31.6 °F 32.0 °F 75% 30.22 in 7.0 mi NNW 12.7 mph 21.9 mph N/A   Mostly Cloudy
6:15 PM 39.2 °F 30.8 °F 32.0 °F 75% 30.23 in 7.0 mi NNW 15.0 mph 23.0 mph N/A   Overcast
6:35 PM 39.2 °F 33.6 °F 32.0 °F 75% 30.25 in 7.0 mi NNW 8.1 mph - N/A   Overcast
6:55 PM 39.2 °F 34.2 °F 32.0 °F 75% 30.26 in 7.0 mi NNW 6.9 mph - N/A   Overcast
7:15 PM 39.2 °F 33.6 °F 32.0 °F 75% 30.26 in 7.0 mi NNW 8.1 mph - N/A   Overcast
7:35 PM 37.4 °F 31.4 °F 32.0 °F 81% 30.27 in 7.0 mi NNW 8.1 mph - N/A   Scattered Clouds
7:55 PM 37.4 °F 32.8 °F 32.0 °F 81% 30.28 in 6.0 mi NNW 5.8 mph - N/A   Haze
8:15 PM 35.6 °F - 32.0 °F 87% 30.29 in 6.0 mi Calm Calm - N/A   Haze
8:35 PM 35.6 °F 29.9 °F 32.0 °F 87% 30.29 in 6.0 mi NNW 6.9 mph - N/A   Clear
8:55 PM 35.6 °F 30.7 °F 32.0 °F 87% 30.29 in 7.0 mi NNW 5.8 mph - N/A   Clear
9:15 PM 35.6 °F 30.7 °F 32.0 °F 87% 30.30 in 7.0 mi NNW 5.8 mph - N/A   Clear
9:35 PM 35.6 °F 30.7 °F 32.0 °F 87% 30.30 in 8.0 mi NNW 5.8 mph - N/A   Clear
9:55 PM 35.6 °F 29.9 °F 32.0 °F 87% 30.30 in 8.0 mi NNW 6.9 mph - N/A   Clear
10:15 PM 35.6 °F 29.9 °F 32.0 °F 87% 30.31 in 8.0 mi NNW 6.9 mph - N/A   Clear
10:35 PM 35.6 °F 30.7 °F 30.2 °F 81% 30.32 in 8.0 mi NW 5.8 mph - N/A   Clear
10:55 PM 35.6 °F 29.9 °F 30.2 °F 81% 30.32 in 7.0 mi NW 6.9 mph - N/A   Clear
11:15 PM 35.6 °F 30.7 °F 30.2 °F 81% 30.32 in 7.0 mi NW 5.8 mph - N/A   Clear
11:35 PM 35.6 °F 29.9 °F 30.2 °F 81% 30.32 in 7.0 mi NNW 6.9 mph - N/A   Clear
11:55 PM 33.8 °F 30.8 °F 30.2 °F 87% 30.32 in 7.0 mi WNW 3.5 mph - N/A   Clear